| time (UTC) | temp F | wind direction | speed MPH | gust MPH | rain 1hr in | rain 24hr in | rain mn in | humidity % | barometer mb |
| 20260905064528 | 0 | 0.0 | 0.0 | 0.00 | 0.00 | 0.00 | |||
| 20260905063548 | 0 | 0.0 | 0.0 | 0.00 | 0.00 | 0.00 | |||
| 20260905063030 | 0 | 0.0 | 0.0 | 0.00 | 0.00 | 0.00 | |||
| 20260905062621 | 0 | 0.0 | 0.0 | 0.00 | 0.00 | 0.00 | |||
| 20260905062027 | 0 | 0.0 | 0.0 | 0.00 | 0.00 | 0.00 | |||
| 20260905061027 | 0 | 0.0 | 0.0 | 0.00 | 0.00 | 0.00 | |||
| 20260905060621 | 0 | 0.0 | 0.0 | 0.00 | 0.00 | 0.00 | |||
| 20260905060034 | 0 | 0.0 | 0.0 | 0.00 | 0.00 | 0.00 | |||
| 20260905055528 | 0 | 0.0 | 0.0 | 0.00 | 0.00 | 0.00 | |||
| 20260905054527 | 0 | 0.0 | 0.0 | 0.00 | 0.00 | 0.00 | |||
| 20260905054048 | 0 | 0.0 | 0.0 | 0.00 | 0.00 | 0.00 | 89 | ||
| 20260905053549 | 71 | 0.0 | 0.0 | 0.00 | 0.00 | 0.00 | 89 | 1011.0 | |
| 20260905052529 | 71 | 0.0 | 0.0 | 0.00 | 0.00 | 0.00 | 89 | 1011.2 | |
| 20260905051548 | 71 | 0.0 | 0.0 | 0.00 | 0.00 | 0.00 | 88 | 1011.2 | |
| 20260905050550 | 71 | 0.0 | 0.0 | 0.00 | 0.00 | 0.00 | 88 | 1011.3 | |
| 20260905045528 | 71 | 0.0 | 0.0 | 0.00 | 0.00 | 0.00 | 88 | 1011.5 | |
| 20260905044529 | 71 | 0.0 | 0.0 | 0.00 | 0.00 | 0.00 | 85 | 1011.3 | |
| 20260905043528 | 71 | 0.0 | 0.0 | 0.00 | 0.00 | 0.00 | 87 | 1011.3 | |
| 20260905042529 | 71 | 0.0 | 0.0 | 0.00 | 0.00 | 0.00 | 87 | 1011.4 | |
| 20260905041529 | 71 | 0.0 | 0.0 | 0.00 | 0.00 | 0.00 | 87 | 1011.6 | |
| 20260905040538 | 71 | 0.0 | 0.0 | 0.00 | 0.00 | 0.00 | 87 | 1011.7 | |
| 20260905035529 | 71 | 0.0 | 0.0 | 0.00 | 0.00 | 0.00 | 89 | 1011.7 | |
| 20260905034549 | 72 | 0.0 | 0.0 | 0.00 | 0.00 | 0.00 | 90 | 1011.6 | |
| 20260905033549 | 72 | 0.0 | 0.0 | 0.00 | 0.00 | 0.00 | 91 | 1011.5 | |
| 20260905032529 | 72 | 0.0 | 0.0 | 0.00 | 0.00 | 0.00 | 91 | 1011.5 | |
| 20260905031529 | 72 | 0.0 | 0.0 | 0.00 | 0.00 | 0.00 | 91 | 1011.5 | |
| 20260905030548 | 72 | 0.0 | 0.0 | 0.00 | 0.00 | 0.00 | 91 | 1011.7 | |
| 20260905025529 | 72 | 0.0 | 0.0 | 0.00 | 0.00 | 0.00 | 92 | 1011.5 | |
| 20260905024529 | 72 | 0.0 | 0.0 | 0.00 | 0.00 | 0.00 | 92 | 1011.6 | |
| 20260905023528 | 73 | 0.0 | 0.0 | 0.00 | 0.00 | 0.00 | 92 | 1011.6 | |
| 20260905022528 | 73 | 0.0 | 0.0 | 0.00 | 0.00 | 0.00 | 92 | 1011.7 | |
| 20260905021529 | 73 | 0.0 | 0.0 | 0.00 | 0.00 | 0.00 | 92 | 1011.6 | |
| 20260905020549 | 73 | 0.0 | 0.0 | 0.00 | 0.00 | 0.00 | 92 | 1011.7 | |
| 20260905015549 | 73 | 0.0 | 0.0 | 0.00 | 0.00 | 0.00 | 92 | 1011.4 | |
| 20260905014534 | 73 | 0.0 | 0.0 | 0.00 | 0.00 | 0.00 | 92 | 1011.3 | |
| 20260905013609 | 73 | 0.0 | 0.0 | 0.00 | 0.00 | 0.00 | 92 | 1011.2 | |
| 20260905012528 | 74 | 0.0 | 0.0 | 0.00 | 0.00 | 0.00 | 91 | 1011.2 | |
| 20260905011529 | 74 | 0.0 | 0.0 | 0.00 | 0.00 | 0.00 | 90 | 1011.0 | |
| 20260905010530 | 75 | 0.0 | 0.0 | 0.00 | 0.00 | 0.00 | 90 | 1011.0 | |
| 20260905005534 | 75 | 0.0 | 0.0 | 0.00 | 0.00 | 0.00 | 89 | 1010.7 | |
| 20260905004528 | 75 | 0.0 | 0.0 | 0.00 | 0.00 | 0.00 | 88 | 1010.6 | |
| 20260905003529 | 76 | 0.0 | 0.0 | 0.00 | 0.00 | 0.00 | 88 | 1010.5 | |
| 20260905002529 | 76 | 0.0 | 0.0 | 0.00 | 0.00 | 0.00 | 88 | 1010.5 | |
| 20260905001528 | 76 | 0.0 | 0.0 | 0.00 | 0.00 | 0.00 | 87 | 1010.4 | |
| 20260905000548 | 77 | 0.0 | 0.0 | 0.00 | 0.00 | 0.00 | 87 | 1010.8 | |
| 20260904235528 | 77 | 0.0 | 0.0 | 0.00 | 0.00 | 0.00 | 87 | 1011.0 | |
| 20260904234528 | 77 | 0.0 | 0.0 | 0.00 | 0.00 | 0.00 | 87 | 1011.1 | |
| 20260904233548 | 78 | 0.0 | 0.0 | 0.00 | 0.00 | 0.00 | 87 | 1011.0 | |
| 20260904232528 | 78 | 0.0 | 0.0 | 0.00 | 0.00 | 0.00 | 87 | 1010.6 | |
| 20260904231530 | 78 | 0.0 | 0.0 | 0.00 | 0.00 | 0.00 | 87 | 1010.6 | |
| 20260904230529 | 78 | 0.0 | 0.0 | 0.00 | 0.00 | 0.00 | 86 | 1010.0 | |
| 20260904225549 | 79 | 0.0 | 0.0 | 0.00 | 0.00 | 0.00 | 85 | 1010.5 | |
| 20260904224528 | 79 | 0.0 | 0.0 | 0.00 | 0.00 | 0.00 | 85 | 1010.4 | |
| 20260904223529 | 80 | 0.0 | 0.0 | 0.00 | 0.00 | 0.00 | 85 | 1010.6 | |
| 20260904222610 | 80 | 0.0 | 0.0 | 0.00 | 0.00 | 0.00 | 85 | 1010.8 | |
| 20260904221528 | 80 | 0.0 | 0.0 | 0.00 | 0.00 | 0.00 | 83 | 1010.7 | |
| 20260904220549 | 81 | 0.0 | 0.0 | 0.00 | 0.00 | 0.00 | 81 | 1011.0 | |
| 20260904215529 | 82 | 0.0 | 0.0 | 0.00 | 0.00 | 0.00 | 78 | 1011.9 | |
| 20260904214528 | 82 | 0.0 | 0.0 | 0.00 | 0.00 | 0.00 | 79 | 1012.2 | |
| 20260904213528 | 82 | 0.0 | 0.0 | 0.00 | 0.00 | 0.00 | 79 | 1011.8 | |
| 20260904212528 | 82 | 0.0 | 0.0 | 0.00 | 0.00 | 0.00 | 78 | 1011.6 | |
| 20260904211529 | 83 | 0.0 | 0.0 | 0.00 | 0.00 | 0.00 | 80 | 1011.2 | |
| 20260904210529 | 83 | 0.0 | 0.0 | 0.00 | 0.00 | 0.00 | 82 | 1011.2 | |
| 20260904205528 | 83 | 0.0 | 0.0 | 0.00 | 0.00 | 0.00 | 83 | 1010.7 | |
| 20260904204527 | 83 | 0.0 | 0.0 | 0.00 | 0.00 | 0.00 | 83 | 1010.7 | |
| 20260904203528 | 84 | 0.0 | 0.0 | 0.00 | 0.00 | 0.00 | 81 | 1011.0 | |
| 20260904202528 | 84 | 0.0 | 0.0 | 0.00 | 0.00 | 0.00 | 80 | 1010.7 | |
| 20260904201528 | 85 | 0.0 | 0.0 | 0.00 | 0.00 | 0.00 | 80 | 1010.8 | |
| 20260904200548 | 86 | 0.0 | 0.0 | 0.00 | 0.00 | 0.00 | 77 | 1010.3 | |
| 20260904195527 | 88 | 0.0 | 0.0 | 0.00 | 0.00 | 0.00 | 72 | 1010.3 | |
| 20260904194530 | 90 | 0.0 | 0.0 | 0.00 | 0.00 | 0.00 | 70 | 1010.9 | |
| 20260904193548 | 92 | 0.0 | 0.0 | 0.00 | 0.00 | 0.00 | 66 | 1011.1 | |
| 20260904192529 | 94 | 0.0 | 0.0 | 0.00 | 0.00 | 0.00 | 63 | 1010.9 | |
| 20260904191530 | 95 | 0.0 | 0.0 | 0.00 | 0.00 | 0.00 | 62 | 1011.2 | |
| 20260904190528 | 95 | 0.0 | 0.0 | 0.00 | 0.00 | 0.00 | 59 | 1011.0 | |
| 20260904185529 | 95 | 0.0 | 0.0 | 0.00 | 0.00 | 0.00 | 60 | 1011.1 | |
| 20260904184528 | 95 | 0.0 | 0.0 | 0.00 | 0.00 | 0.00 | 59 | 1011.3 | |
| 20260904183550 | 94 | 0.0 | 0.0 | 0.00 | 0.00 | 0.00 | 62 | 1011.6 | |
| 20260904182530 | 93 | 0.0 | 0.0 | 0.00 | 0.00 | 0.00 | 64 | 1011.7 | |
| 20260904181550 | 92 | 0.0 | 0.0 | 0.00 | 0.00 | 0.00 | 63 | 1011.8 | |
| 20260904180528 | 92 | 0.0 | 0.0 | 0.00 | 0.00 | 0.00 | 68 | 1011.9 | |
| 20260904175530 | 92 | 0.0 | 0.0 | 0.00 | 0.00 | 0.00 | 62 | 1012.1 | |
| 20260904174530 | 91 | 0.0 | 0.0 | 0.00 | 0.00 | 0.00 | 63 | 1012.2 | |
| 20260904173530 | 91 | 0.0 | 0.0 | 0.00 | 0.00 | 0.00 | 66 | 1012.2 | |
| 20260904172530 | 91 | 0.0 | 0.0 | 0.00 | 0.00 | 0.00 | 66 | 1012.4 | |
| 20260904171529 | 91 | 0.0 | 0.0 | 0.00 | 0.00 | 0.00 | 63 | 1012.4 | |
| 20260904170528 | 90 | 0.0 | 0.0 | 0.00 | 0.00 | 0.00 | 66 | 1012.4 | |
| 20260904165529 | 90 | 0.0 | 0.0 | 0.00 | 0.00 | 0.00 | 66 | 1012.4 | |
| 20260904164529 | 90 | 0.0 | 0.0 | 0.00 | 0.00 | 0.00 | 67 | 1012.6 | |
| 20260904163529 | 90 | 0.0 | 0.0 | 0.00 | 0.00 | 0.00 | 66 | 1012.7 | |
| 20260904162530 | 89 | 0.0 | 0.0 | 0.00 | 0.00 | 0.00 | 66 | 1012.9 | |
| 20260904161532 | 89 | 0.0 | 0.0 | 0.00 | 0.00 | 0.00 | 67 | 1012.9 | |
| 20260904160530 | 88 | 0.0 | 0.0 | 0.00 | 0.00 | 0.00 | 69 | 1012.9 | |
| 20260904155530 | 88 | 0.0 | 0.0 | 0.00 | 0.00 | 0.00 | 69 | 1012.9 | |
| 20260904154529 | 88 | 0.0 | 0.0 | 0.00 | 0.00 | 0.00 | 73 | 1013.0 | |
| 20260904153529 | 87 | 0.0 | 0.0 | 0.00 | 0.00 | 0.00 | 73 | 1013.0 | |
| 20260904152529 | 86 | 0.0 | 0.0 | 0.00 | 0.00 | 0.00 | 76 | 1013.0 | |
| 20260904151530 | 86 | 0.0 | 0.0 | 0.00 | 0.00 | 0.00 | 77 | 1013.1 | |
| 20260904150530 | 85 | 0.0 | 0.0 | 0.00 | 0.00 | 0.00 | 80 | 1013.2 | |
| 20260904145530 | 85 | 0.0 | 0.0 | 0.00 | 0.00 | 0.00 | 85 | 1013.2 | |
| 20260904144530 | 83 | 0.0 | 0.0 | 0.00 | 0.00 | 0.00 | 85 | 1013.2 | |
| 20260904143529 | 82 | 0.0 | 0.0 | 0.00 | 0.00 | 0.00 | 89 | 1013.4 | |
| 20260904142529 | 81 | 0.0 | 0.0 | 0.00 | 0.00 | 0.00 | 91 | 1013.3 | |
| 20260904141550 | 80 | 0.0 | 0.0 | 0.00 | 0.00 | 0.00 | 91 | 1013.4 | |
| 20260904140530 | 79 | 0.0 | 0.0 | 0.00 | 0.00 | 0.00 | 88 | 1013.3 | |
| 20260904135529 | 78 | 0.0 | 0.0 | 0.00 | 0.00 | 0.00 | 87 | 1013.2 | |
| 20260904134549 | 77 | 0.0 | 0.0 | 0.00 | 0.00 | 0.00 | 85 | 1013.2 | |
| 20260904133529 | 76 | 0.0 | 0.0 | 0.00 | 0.00 | 0.00 | 75 | 1013.4 | |
| 20260904132529 | 75 | 0.0 | 0.0 | 0.00 | 0.00 | 0.00 | 72 | 1013.4 | |
| 20260904131530 | 75 | 0.0 | 0.0 | 0.00 | 0.00 | 0.00 | 46 | 1013.4 | |
| 20260904130529 | 74 | 0.0 | 0.0 | 0.00 | 0.00 | 0.00 | 44 | 1013.4 | |
| 20260904125550 | 74 | 0.0 | 0.0 | 0.00 | 0.00 | 0.00 | 44 | 1013.4 | |
| 20260904124529 | 73 | 0.0 | 0.0 | 0.00 | 0.00 | 0.00 | 45 | 1013.3 | |
| 20260904123549 | 73 | 0.0 | 0.0 | 0.00 | 0.00 | 0.00 | 45 | 1013.0 | |
| 20260904122529 | 72 | 0.0 | 0.0 | 0.00 | 0.00 | 0.00 | 46 | 1012.8 | |
| 20260904121529 | 72 | 0.0 | 0.0 | 0.00 | 0.00 | 0.00 | 47 | 1012.8 | |
| 20260904120528 | 72 | 0.0 | 0.0 | 0.00 | 0.00 | 0.00 | 48 | 1012.8 | |
| 20260904115547 | 0 | 0.0 | 0.0 | 0.00 | 0.00 | 0.00 | |||
| 20260904114528 | 0 | 0.0 | 0.0 | 0.00 | 0.00 | 0.00 | |||
| 20260904114048 | 0 | 0.0 | 0.0 | 0.00 | 0.00 | 0.00 | |||
| 20260904113522 | 0 | 0.0 | 0.0 | 0.00 | 0.00 | 0.00 | |||
| 20260904113027 | 0 | 0.0 | 0.0 | 0.00 | 0.00 | 0.00 | |||
| 20260904112027 | 0 | 0.0 | 0.0 | 0.00 | 0.00 | 0.00 | |||
| 20260904111603 | 0 | 0.0 | 0.0 | 0.00 | 0.00 | 0.00 | |||
| 20260904111018 | 0 | 0.0 | 0.0 | 0.00 | 0.00 | 0.00 | |||
| 20260904110547 | 0 | 0.0 | 0.0 | 0.00 | 0.00 | 0.00 | |||
| 20260904105527 | 0 | 0.0 | 0.0 | 0.00 | 0.00 | 0.00 | |||
| 20260904105109 | 0 | 0.0 | 0.0 | 0.00 | 0.00 | 0.00 | |||
| 20260904104522 | 0 | 0.0 | 0.0 | 0.00 | 0.00 | 0.00 | |||
| 20260904104027 | 0 | 0.0 | 0.0 | 0.00 | 0.00 | 0.00 | |||
| 20260904103027 | 0 | 0.0 | 0.0 | 0.00 | 0.00 | 0.00 | |||
| 20260904102545 | 0 | 0.0 | 0.0 | 0.00 | 0.00 | 0.00 | |||
| 20260904102118 | 0 | 0.0 | 0.0 | 0.00 | 0.00 | 0.00 | |||
| 20260904101527 | 0 | 0.0 | 0.0 | 0.00 | 0.00 | 0.00 | |||
| 20260904100547 | 0 | 0.0 | 0.0 | 0.00 | 0.00 | 0.00 | |||
| 20260904100046 | 0 | 0.0 | 0.0 | 0.00 | 0.00 | 0.00 | |||
| 20260904095540 | 0 | 0.0 | 0.0 | 0.00 | 0.00 | 0.00 | |||
| 20260904095047 | 0 | 0.0 | 0.0 | 0.00 | 0.00 | 0.00 | |||
| 20260904094027 | 0 | 0.0 | 0.0 | 0.00 | 0.00 | 0.00 | |||
| 20260904093548 | 0 | 0.0 | 0.0 | 0.00 | 0.00 | 0.00 | |||
| 20260904093022 | 0 | 0.0 | 0.0 | 0.00 | 0.00 | 0.00 | |||
| 20260904092528 | 0 | 0.0 | 0.0 | 0.00 | 0.00 | 0.00 | |||
| 20260904091527 | 0 | 0.0 | 0.0 | 0.00 | 0.00 | 0.00 | |||
| 20260904091051 | 0 | 0.0 | 0.0 | 0.00 | 0.00 | 0.00 | |||
| 20260904090546 | 0 | 0.0 | 0.0 | 0.00 | 0.00 | 0.00 | |||
| 20260904090027 | 0 | 0.0 | 0.0 | 0.00 | 0.00 | 0.00 | |||
| 20260904085027 | 0 | 0.0 | 0.0 | 0.00 | 0.00 | 0.00 | |||
| 20260904084548 | 0 | 0.0 | 0.0 | 0.00 | 0.00 | 0.00 | |||
| 20260904084021 | 0 | 0.0 | 0.0 | 0.00 | 0.00 | 0.00 | |||
| 20260904083528 | 0 | 0.0 | 0.0 | 0.00 | 0.00 | 0.00 | |||
| 20260904082527 | 0 | 0.0 | 0.0 | 0.00 | 0.00 | 0.00 | |||
| 20260904082048 | 0 | 0.0 | 0.0 | 0.00 | 0.00 | 0.00 | |||
| 20260904081543 | 0 | 0.0 | 0.0 | 0.00 | 0.00 | 0.00 | |||
| 20260904081027 | 0 | 0.0 | 0.0 | 0.00 | 0.00 | 0.00 | |||
| 20260904080027 | 0 | 0.0 | 0.0 | 0.00 | 0.00 | 0.00 | |||
| 20260904075540 | 0 | 0.0 | 0.0 | 0.00 | 0.00 | 0.00 | |||
| 20260904075015 | 0 | 0.0 | 0.0 | 0.00 | 0.00 | 0.00 | |||
| 20260904074527 | 0 | 0.0 | 0.0 | 0.00 | 0.00 | 0.00 | |||
| 20260904073528 | 0 | 0.0 | 0.0 | 0.00 | 0.00 | 0.00 | |||
| 20260904073009 | 0 | 0.0 | 0.0 | 0.00 | 0.00 | 0.00 | |||
| 20260904072625 | 0 | 0.0 | 0.0 | 0.00 | 0.00 | 0.00 | |||
| 20260904072027 | 0 | 0.0 | 0.0 | 0.00 | 0.00 | 0.00 | |||
| 20260904071027 | 0 | 0.0 | 0.0 | 0.00 | 0.00 | 0.00 | |||
| 20260904070518 | 0 | 0.0 | 0.0 | 0.00 | 0.00 | 0.00 | 78 | ||
| 20260904070112 | 71 | 0.0 | 0.0 | 0.00 | 0.00 | 0.00 | 78 | 1011.6 | |
| 20260904065029 | 72 | 0.0 | 0.0 | 0.00 | 0.00 | 0.00 | 77 | 1011.6 |